Terug naar catalogus

COSMOS 374 DEB

ActiefLEO
NORAD 18517·DEBRIS·🇷🇺 Russia

Gelanceerd Oct 23, 1970 vanaf Baikonur Cosmodrome

Loading…

Volgende Passages (komende 24 uur)

TLE

VersSource: Space-Track

Epoch: Sep 14, 2026, 07:27 UTC

1 18517U 70089DD  26257.31086865  .00003980  00000-0  53361-3 0  9996
2 18517  62.3820 159.8934 0258014 217.3772 140.9112 14.60484966886999

Volg COSMOS 374 DEB in realtime met AllMySat

Download on the App Store